Regional Weather Roundup
Issued by NWS Charleston, SC

Current Version | Previous Version | Text Only | Print | Product List | Glossary Off
Versions: 1 2 3 4 5 6 7 8 9 10 11 12 13 14 15 16 17 18 19 20 21 22 23 24 25 26 27 28 29 30 31 32 33 34 35 36 37 38 39 40 41 42 43 44 45 46 47 48 49 50

284
ASUS42 KCHS 031812
RWRCHS

REGIONAL WEATHER ROUNDUP
NATIONAL WEATHER SERVICE CHARLESTON SC
100 PM EST SAT DEC 03 2016

NOTE: "FAIR" INDICATES FEW OR NO CLOUDS BELOW 12,000 FEET WITH NO
SIGNIFICANT WEATHER AND/OR OBSTRUCTIONS TO VISIBILITY.

NOT ALL STATIONS ARE QUALITY CONTROLLED. USE DATA WITH CAUTION...
ESPECIALLY DEWPOINT OBSERVATIONS.

SCZ027-030-031-034>040-042>050-031900-
...SOUTHEAST SOUTH CAROLINA...

CITY           SKY/WX    TMP DP  RH WIND       PRES   REMARKS
N CHARLESTON   PTSUNNY   57  33  40 NE5       30.23F
6HR MIN TEMP:  40; 6HR MAX TEMP:  57;

WATERFRONT PRK   N/A     54  39  57 NE5       30.24F
MOUNT PLEASANT NOT AVBL
JOHNS ISLAND   FAIR      55  36  47 N7        30.24F
PINOPOLIS        N/A     52  37  58 NE5       30.17F
MONCKS CORNER  FAIR      54  32  43 NE5       30.24F
SUMMERVILLE    FAIR      55  37  50 CALM      30.24F
BEAUFORT MCAS  CLOUDY    59  35  40 E7        30.22F
6HR MIN TEMP:  42; 6HR MAX TEMP:  60;

BEAUFORT ARPT  FAIR      59  36  41 NE7       30.22F
HILTON HEAD IS MOSUNNY   63  37  39 NE7       30.23F
WALTERBORO     MOCLDY    55  36  47 E6        30.23F
ALLENDALE      FAIR      55  36  47 VRB3      30.22F

...SOUTHERN MIDLANDS AND PEE DEE...

CITY           SKY/WX    TMP DP  RH WIND       PRES   REMARKS
GEORGETOWN     NOT AVBL
KINGSTREE      FAIR      52  32  46 N3        30.25F
ORANGEBURG     CLOUDY    52  34  50 NE5       30.25F
6HR MIN TEMP:  36; 6HR MAX TEMP:  53;

BARNWELL       NOT AVBL
AIKEN          FAIR      50  34  53 N3        30.27F
MANNING        NOT AVBL
COLUMBIA       CLOUDY    54  32  43 VRB3      30.25F
6HR MIN TEMP:  34; 6HR MAX TEMP:  55;

SUMTER         CLOUDY    53  34  48 CALM      30.23F
6HR MIN TEMP:  37; 6HR MAX TEMP:  53;

FLORENCE       SUNNY     53  32  44 N12       30.25F
6HR MIN TEMP:  36; 6HR MAX TEMP:  55;

MYRTLE BEACH   NOT AVBL
N MYRTLE BEACH CLOUDY    51  32  48 N7        30.24F
6HR MIN TEMP:  38; 6HR MAX TEMP:  52;


$$

GAZ063-065-086>088-099>101-113>116-118-119-134>141-150-031900-
...SOUTHEAST GEORGIA...

CITY           SKY/WX    TMP DP  RH WIND       PRES   REMARKS
SAVANNAH ARPT  PTSUNNY   64  33  31 SE7       30.21F
6HR MIN TEMP:  44; 6HR MAX TEMP:  64;

HUNTER AAF     MOSUNNY   62  41  46 E10       30.19F
6HR MIN TEMP:  45; 6HR MAX TEMP:  62;

FORT STEWART   MOSUNNY   61  35  36 E3        30.19F
6HR MIN TEMP:  45; 6HR MAX TEMP:  62;

STATESBORO     SUNNY     63  36  37 E5        30.22F
SYLVANIA       CLEAR    N/A N/A N/A E3        30.23F
CLAXTON        FAIR      63  38  40 NE5       30.21F

...CSRA...CENTRAL AND FAR SOUTHEAST GEORGIA...

CITY           SKY/WX    TMP DP  RH WIND       PRES   REMARKS
THOMSON        CLOUDY    58  37  46 CALM      30.28F
AUGUSTA-BUSH   CLOUDY    57  33  40 VRB3      30.24F
6HR MIN TEMP:  36; 6HR MAX TEMP:  58;

AUGUSTA-DANIEL CLOUDY    56  31  38 N3        30.24F
SWAINSBORO     FAIR      61  32  33 NE5       30.23F
VIDALIA        MOSUNNY   63  39  42 E8        30.21F
EASTMAN        FAIR      65  -2   6 S5        30.22F
HAZLEHURST     FAIR      64  35  34 E3        30.19F
ALMA           CLOUDY    61  36  39 NE3       30.20F
6HR MIN TEMP:  48; 6HR MAX TEMP:  62;

WAYCROSS       MOSUNNY   65  38  37 SE6       30.20F
JESUP          FAIR      61  43  51 E6        30.22F
BAXLEY         FAIR      63  39  42 SE6       30.20F
BRUNSWICK      CLOUDY    63  46  55 E10       30.21F
SAINT SIMONS   MOSUNNY   63  42  46 NE12      30.20F
6HR MIN TEMP:  48; 6HR MAX TEMP:  64;


$$

SCZ027-028-034-036>038-045-046-048>050-GAZ119-141-031900-
...LAKE AND SUPPLEMENTAL COASTAL OBSERVATIONS...

STATION/POSITION TIME  TEMP    WIND        PRES    WAVE   SWELL
                       AIR SEA DIR/SP/G            HT/PER HT/PER/DIR
                 (UTC) (F)     (DEG/KT/KT) (MB)    (FT/S) (FT/S/D)
WINYAH BAY       NOT AVBL
LAKE MURRAY      1720   52      CALM  /  4 1024.0
ACE BASIN NERRS  1645   58      60/  5     1024.0
FORT PULASKI     1748   56 62   70/ 11/ 15 1023.6F
SAPELO ISLAND    1700   62      60/ 10     1024.0

$$

ANZ835-935-AMZ111-154-330-350-352-354-370-450-454-472-031900-
...C-MAN AND BUOY OBSERVATIONS...

STATION/POSITION TIME  TEMP    WIND        PRES    WAVE   SWELL
                       AIR SEA DIR/SP/G            HT/PER HT/PER/DIR
                 (UTC) (F)     (DEG/KT/KT) (MB)    (FT/S) (FT/S/D)
BUOY 41004       1750   57 75   40/ 16/ 17 1022.4F   4/ 5   2/110/ 9
BUOY 41008       1750   61 65   50/ 12/ 16 1022.4F   3/ 5   2/120/ 9
FOLLY BEACH CMAN 1700   52      30/ 12/ 16 1024.8F
CAPERS NEARSHORE 1708   53 62   60/ 14/ 19 1023.8F
FRIPP NEARSHORE  1708   56 63   50/ 14/ 21 1023.8F


STATION/POSITION TIME  TEMP    WIND        PRES    WAVE   SWELL
                       AIR SEA DIR/SP/G            HT/PER HT/PER/DIR
                 (UTC) (F)     (DEG/KT/KT) (MB)    (FT/S) (FT/S/D)
5E ST. MARYS GA  1800      66                N/A     3/ 9
FRYING PAN BUOY  1750   52 74   20/ 12/ 17 1023.0F   4/ 6   2/100/ 8
BUOY 41025       1750   53 74  360/ 17/ 21 1022.2S   5/ 8   3/ 30/ 8
CAPE LOOKOUT NC  1700   49     340/ 11/ 15 1023.4F
BUOY 41002       1750   64 74  350/ 14/ 17 1019.8F   5/ 6   3/ 10/ 7
BUOY 41010       NOT AVBL
ST AUGUSTINE FL  1800   66 67   30/ 13/ 14 1022.3F


$$




USA.gov is the U.S. government's official web portal to all federal, state and local government web resources and services.